Weather History for Guernsey, United Kingdom

Change the Weather History Date:

Friday, October 5, 2012

  Actual Average Record
Temperature  
Mean Temperature 58 °F -  
Max Temperature 62 °F 56 °F 66 °F (1997)
Min Temperature 55 °F 50 °F 48 °F (1998)
Degree Days  
Heating Degree Days 6    
Growing Degree Days 8 (Base 50)    
Moisture  
Dew Point 59 °F    
Average Humidity 95    
Maximum Humidity 100    
Minimum Humidity 84    
Precipitation  
Precipitation 0.08 in - - ()
Sea Level Pressure  
Sea Level Pressure 29.83 in    
Wind  
Wind Speed 19 mph ()    
Max Wind Speed 28 mph    
Max Gust Speed 43 mph    
Visibility 6.3 miles    
Events Rain    
Averages and records for this station are not official NWS values.
T = Trace of Precipitation, MM = Missing Value Source: Averaged Metar Reports

Daily Weather History Graph

Daily Weather History Graph

Search for Another Location

Airport:

Trip Planner

Search our weather history database for the weather conditions in past years. The results will help you decide how hot, cold, wet, or windy it might be!

Date:

Astronomy

Oct. 05, 2012 Rise Set
Actual Time 7:16 AM BST 6:39 PM BST
Civil Twilight 6:44 AM BST 7:11 PM BST
Nautical Twilight 6:07 AM BST 7:48 PM BST
Astronomical Twilight 5:30 AM BST 8:26 PM BST
Moon 9:25 PM BST (10/5) 12:38 PM BST (10/5)
Length of Visible Light 12h 27m
Length of Day
11h 23m
Waning Gibbous, 76% of the Moon is Illuminated
Oct 5
Waning Gibbous
Oct 8
Last Quarter
Oct 15
New
Oct 22
First Quarter
Oct 29
Full

Hourly Weather History & Observations

Time (BST) Temp. Dew Point Humidity Pressure Visibility Wind Dir Wind Speed Gust Speed Precip Events Conditions
1:00 AM 60 °F 56 °F 84% 29.78 in 16 mi SSW 25.3 mph - -   Mostly Cloudy
3:50 AM 60.8 °F 59.0 °F 94% 29.74 in 6.2 mi SW 26.5 mph 39.1 mph N/A   Mostly Cloudy
4:00 AM 61 °F 59 °F 89% 29.74 in 19 mi SW 27.6 mph - -   Mostly Cloudy
4:20 AM 60.8 °F 59.0 °F 94% 29.74 in 6.2 mi SW 26.5 mph - N/A   Mostly Cloudy
4:50 AM 60.8 °F 59.0 °F 94% 29.74 in 6.2 mi SW 26.5 mph - N/A   Mostly Cloudy
5:20 AM 60.8 °F 59.0 °F 94% 29.74 in 6.2 mi SW 27.6 mph - N/A   Mostly Cloudy
5:50 AM 60.8 °F 59.0 °F 94% 29.74 in 6.2 mi SW 26.5 mph 41.4 mph N/A   Light Drizzle
6:20 AM 60.8 °F 59.0 °F 94% 29.77 in 6.2 mi SW 27.6 mph 42.6 mph N/A   Light Drizzle
6:50 AM 60.8 °F 59.0 °F 94% 29.77 in 6.2 mi SW 26.5 mph 38.0 mph N/A   Light Drizzle
7:00 AM 61 °F 60 °F 93% 29.78 in 9 mi SW 26.5 mph - - Rain Light Drizzle
7:20 AM 60.8 °F 59.0 °F 94% 29.77 in 1.2 mi SW 26.5 mph - N/A Rain Light Rain
7:50 AM 60.8 °F 59.0 °F 94% 29.77 in 2.8 mi SW 25.3 mph 36.8 mph N/A   Light Drizzle
8:20 AM 60.8 °F 60.8 °F 100% 29.80 in 1.6 mi SW 26.5 mph 41.4 mph N/A Rain Light Rain
8:50 AM 60.8 °F 60.8 °F 100% 29.80 in 3.7 mi SW 26.5 mph 38.0 mph N/A   Light Drizzle
9:20 AM 59.0 °F 59.0 °F 100% 29.83 in 1.1 mi WSW 23.0 mph 35.7 mph N/A Rain Rain
9:50 AM 57.2 °F 57.2 °F 100% 29.86 in 5.6 mi WNW 11.5 mph - N/A   Light Drizzle
10:00 AM 57 °F 57 °F 98% 29.86 in 6 mi WNW 11.5 mph - - Rain Light Drizzle
10:20 AM 57.2 °F 57.2 °F 100% 29.86 in 1.2 mi WNW 8.1 mph - N/A Rain Rain
10:50 AM 55.4 °F 55.4 °F 100% 29.86 in 3.1 mi West 8.1 mph - N/A Rain Light Rain
11:20 AM 57.2 °F 57.2 °F 100% 29.86 in 5.0 mi WSW 9.2 mph - N/A   Mostly Cloudy
11:50 AM 57.2 °F 57.2 °F 100% 29.86 in 2.5 mi West 9.2 mph - N/A   Light Drizzle
12:20 PM 59.0 °F 59.0 °F 100% 29.86 in 1.6 mi WSW 12.7 mph - N/A   Drizzle
12:50 PM 60.8 °F 60.8 °F 100% 29.86 in 3.7 mi WSW 15.0 mph - N/A   Mostly Cloudy
1:00 PM 60 °F 60 °F 100% 29.88 in 4 mi WSW 15.0 mph - - Rain Light Drizzle
1:20 PM 60.8 °F 60.8 °F 100% 29.86 in 6.2 mi SW 18.4 mph - N/A   Mostly Cloudy
1:50 PM 62.6 °F 60.8 °F 94% 29.86 in 6.2 mi SW 19.6 mph - N/A   Mostly Cloudy
2:20 PM 62.6 °F 60.8 °F 94% 29.86 in 6.2 mi SW 19.6 mph - N/A   Mostly Cloudy
2:50 PM 62.6 °F 60.8 °F 94% 29.86 in 6.2 mi SW 17.3 mph - N/A   Mostly Cloudy
3:20 PM 62.6 °F 59.0 °F 88% 29.86 in 6.2 mi WSW 16.1 mph - N/A   Mostly Cloudy
3:50 PM 62.6 °F 59.0 °F 88% 29.86 in 6.2 mi WSW 17.3 mph - N/A   Mostly Cloudy
4:00 PM 62 °F 59 °F 86% 29.88 in 17 mi WSW 17.3 mph - -   Mostly Cloudy
4:20 PM 60.8 °F 59.0 °F 94% 29.86 in 6.2 mi WSW 17.3 mph - N/A   Mostly Cloudy
4:50 PM 60.8 °F 59.0 °F 94% 29.86 in 6.2 mi WSW 16.1 mph - N/A   Mostly Cloudy
5:20 PM 60.8 °F 59.0 °F 94% 29.86 in 6.2 mi SW 18.4 mph - N/A   Mostly Cloudy
5:50 PM 60.8 °F 59.0 °F 94% 29.86 in 6.2 mi WSW 18.4 mph - N/A   Mostly Cloudy
6:20 PM 60.8 °F 59.0 °F 94% 29.86 in 6.2 mi WSW 16.1 mph - N/A   Light Drizzle
6:50 PM 59.0 °F 59.0 °F 100% 29.86 in 6.2 mi SW 11.5 mph - N/A   Mostly Cloudy
7:00 PM 60 °F 59 °F 94% 29.87 in 7 mi SW 11.5 mph - - Rain Light Drizzle
7:20 PM 59.0 °F 59.0 °F 100% 29.86 in 6.2 mi SW 12.7 mph - N/A   Mostly Cloudy
7:50 PM 60.8 °F 59.0 °F 94% 29.86 in 6.2 mi SSW 13.8 mph - N/A   Mostly Cloudy
8:20 PM 60.8 °F 59.0 °F 94% 29.86 in 6.2 mi SSW 17.3 mph - N/A   Scattered Clouds
8:50 PM 60.8 °F 59.0 °F 94% 29.86 in 6.2 mi SSW 11.5 mph - N/A   Mostly Cloudy
10:00 PM 60 °F 58 °F 91% 29.85 in 19 mi SSW 13.8 mph - -   Mostly Cloudy